TimeEDT,TemperatureF,Dew PointF,Humidity,Sea Level PressureIn,VisibilityMPH,Wind Direction,Wind SpeedMPH,Gust SpeedMPH,PrecipitationIn,Events,Conditions,WindDirDegrees,DateUTC
12:15 AM,45.7,36.5,70,29.77,10.0,NNW,10.4,18.4,N/A,,Overcast,330,2012-11-01 04:15:00
12:35 AM,45.7,36.7,71,29.77,10.0,NNW,11.5,17.3,N/A,,Overcast,340,2012-11-01 04:35:00
1:15 AM,44.8,36.7,73,29.77,10.0,NNW,9.2,18.4,N/A,,Mostly Cloudy,330,2012-11-01 05:15:00
1:35 AM,44.1,36.0,73,29.77,10.0,NNW,10.4,-,N/A,,Scattered Clouds,330,2012-11-01 05:35:00
1:55 AM,43.9,34.9,71,29.77,10.0,NNW,11.5,17.3,N/A,,Clear,330,2012-11-01 05:55:00
2:15 AM,43.7,31.3,62,29.77,10.0,NNW,11.5,18.4,N/A,,Clear,330,2012-11-01 06:15:00
2:35 AM,43.5,31.6,63,29.77,10.0,NNW,10.4,21.9,N/A,,Clear,330,2012-11-01 06:35:00
2:55 AM,42.8,32.0,66,29.77,10.0,NNW,10.4,16.1,N/A,,Clear,330,2012-11-01 06:55:00
3:15 AM,42.8,32.2,66,29.77,10.0,NNW,11.5,18.4,N/A,,Clear,330,2012-11-01 07:15:00
3:35 AM,42.1,32.2,68,29.78,10.0,NNW,12.7,18.4,N/A,,Clear,330,2012-11-01 07:35:00
3:55 AM,41.9,32.9,70,29.77,10.0,NNW,10.4,17.3,N/A,,Clear,330,2012-11-01 07:55:00
4:15 AM,41.9,33.6,72,29.77,10.0,NW,12.7,-,N/A,,Mostly Cloudy,320,2012-11-01 08:15:00
4:35 AM,41.9,33.4,72,29.77,10.0,NW,9.2,17.3,N/A,,Mostly Cloudy,320,2012-11-01 08:35:00
4:55 AM,42.3,35.1,76,29.77,10.0,NW,4.6,17.3,N/A,,Overcast,320,2012-11-01 08:55:00
5:14 AM,42.4,35.8,77,29.77,10.0,NNW,5.8,-,N/A,,Overcast,340,2012-11-01 09:14:00
5:35 AM,41.9,36.3,81,29.77,10.0,North,8.1,-,N/A,,Overcast,350,2012-11-01 09:35:00
6:15 AM,42.6,34.7,74,29.78,10.0,NNW,12.7,18.4,N/A,,Overcast,340,2012-11-01 10:15:00
6:35 AM,42.1,36.0,79,29.78,10.0,NNW,3.5,17.3,N/A,,Overcast,330,2012-11-01 10:35:00
6:55 AM,42.3,35.4,77,29.78,10.0,NNW,6.9,18.4,N/A,,Overcast,330,2012-11-01 10:55:00
7:15 AM,42.3,35.6,77,29.78,10.0,NNW,9.2,-,N/A,,Overcast,330,2012-11-01 11:15:00
7:35 AM,41.9,35.6,78,29.79,10.0,NNW,10.4,-,N/A,,Mostly Cloudy,330,2012-11-01 11:35:00
8:15 AM,41.9,35.1,77,29.79,10.0,NW,10.4,-,N/A,,Mostly Cloudy,310,2012-11-01 12:15:00
8:35 AM,41.5,34.7,77,29.79,10.0,NW,9.2,16.1,N/A,,Scattered Clouds,320,2012-11-01 12:35:00
8:55 AM,41.9,34.9,76,29.80,10.0,NW,9.2,-,N/A,,Scattered Clouds,320,2012-11-01 12:55:00
9:35 AM,42.6,34.5,73,29.81,10.0,NW,8.1,16.1,N/A,,Mostly Cloudy,320,2012-11-01 13:35:00
9:55 AM,44.6,34.7,68,29.82,10.0,NW,11.5,18.4,N/A,,Mostly Cloudy,310,2012-11-01 13:55:00
10:15 AM,43.9,34.0,68,29.82,10.0,NW,11.5,-,N/A,,Overcast,310,2012-11-01 14:15:00
10:35 AM,44.1,34.2,68,29.82,10.0,WNW,13.8,18.4,N/A,,Overcast,300,2012-11-01 14:35:00
10:55 AM,44.6,33.4,65,29.82,10.0,NW,12.7,21.9,N/A,,Overcast,320,2012-11-01 14:55:00
11:15 AM,45.1,33.3,63,29.82,10.0,WNW,13.8,18.4,N/A,,Overcast,300,2012-11-01 15:15:00
11:35 AM,45.7,32.4,60,29.82,10.0,WNW,11.5,19.6,N/A,,Scattered Clouds,300,2012-11-01 15:35:00
11:55 AM,46.8,32.7,58,29.83,10.0,NW,9.2,17.3,N/A,,Clear,320,2012-11-01 15:55:00
12:15 PM,46.4,31.8,57,29.82,10.0,NW,13.8,20.7,N/A,,Mostly Cloudy,310,2012-11-01 16:15:00
12:35 PM,45.7,33.1,61,29.83,10.0,NW,11.5,19.6,N/A,,Overcast,310,2012-11-01 16:35:00
12:55 PM,45.9,32.4,59,29.82,10.0,NW,11.5,18.4,N/A,,Overcast,310,2012-11-01 16:55:00
1:15 PM,45.9,32.0,58,29.82,10.0,NW,10.4,18.4,N/A,,Overcast,320,2012-11-01 17:15:00
1:35 PM,46.6,32.4,58,29.81,10.0,WNW,11.5,-,N/A,,Overcast,300,2012-11-01 17:35:00
1:55 PM,46.6,33.3,60,29.81,10.0,WNW,9.2,16.1,N/A,,Mostly Cloudy,300,2012-11-01 17:55:00
2:15 PM,47.5,31.3,53,29.81,10.0,NW,11.5,18.4,N/A,,Scattered Clouds,310,2012-11-01 18:15:00
2:35 PM,47.7,30.2,51,29.80,10.0,WNW,10.4,18.4,N/A,,Scattered Clouds,300,2012-11-01 18:35:00
3:15 PM,47.5,30.4,52,29.79,10.0,NW,12.7,18.4,N/A,,Mostly Cloudy,320,2012-11-01 19:15:00
3:35 PM,46.4,30.4,54,29.80,10.0,NW,12.7,16.1,N/A,,Mostly Cloudy,320,2012-11-01 19:35:00
4:35 PM,45.5,27.0,48,29.80,10.0,NNW,11.5,-,N/A,,Overcast,330,2012-11-01 20:35:00
4:55 PM,45.7,27.1,48,29.80,10.0,NW,9.2,-,N/A,,Overcast,320,2012-11-01 20:55:00
5:15 PM,45.5,27.0,48,29.81,10.0,NW,8.1,-,N/A,,Overcast,310,2012-11-01 21:15:00
5:35 PM,45.5,27.9,50,29.81,10.0,NW,9.2,-,N/A,,Overcast,320,2012-11-01 21:35:00
5:55 PM,45.5,26.2,47,29.82,10.0,WNW,5.8,-,N/A,,Overcast,300,2012-11-01 21:55:00
6:15 PM,45.7,26.4,47,29.82,10.0,NW,6.9,-,N/A,,Overcast,310,2012-11-01 22:15:00
6:35 PM,45.7,26.8,48,29.82,10.0,NW,6.9,-,N/A,,Overcast,320,2012-11-01 22:35:00
6:55 PM,45.9,27.1,48,29.82,10.0,NW,5.8,-,N/A,,Overcast,320,2012-11-01 22:55:00
7:15 PM,46.0,28.4,50,29.82,10.0,NNW,8.1,-,N/A,,Overcast,330,2012-11-01 23:15:00
7:35 PM,45.9,28.2,50,29.83,10.0,NNW,9.2,-,N/A,,Overcast,330,2012-11-01 23:35:00
7:55 PM,45.7,28.6,51,29.83,10.0,NNW,8.1,-,N/A,,Overcast,340,2012-11-01 23:55:00
8:15 PM,45.5,30.2,55,29.84,10.0,North,4.6,-,N/A,,Overcast,350,2012-11-02 00:15:00
8:35 PM,45.3,28.9,53,29.83,10.0,NNW,3.5,-,N/A,,Overcast,340,2012-11-02 00:35:00
8:55 PM,45.5,28.8,52,29.84,10.0,NNW,5.8,-,N/A,,Overcast,340,2012-11-02 00:55:00
9:15 PM,45.5,28.4,51,29.84,10.0,NNW,4.6,-,N/A,,Overcast,330,2012-11-02 01:15:00
9:35 PM,45.7,28.6,51,29.84,10.0,NNW,6.9,-,N/A,,Overcast,330,2012-11-02 01:35:00
9:55 PM,45.9,28.9,52,29.85,10.0,NW,8.1,-,N/A,,Overcast,320,2012-11-02 01:55:00
10:15 PM,45.9,30.7,56,29.85,10.0,NW,6.9,-,N/A,,Overcast,320,2012-11-02 02:15:00
10:35 PM,46.0,32.9,60,29.84,10.0,NNW,5.8,-,N/A,,Overcast,330,2012-11-02 02:35:00
10:55 PM,46.4,35.1,65,29.84,10.0,NW,5.8,-,N/A,,Overcast,320,2012-11-02 02:55:00
11:15 PM,45.1,39.2,80,29.84,10.0,NNW,9.2,-,N/A,Rain,Light Rain,340,2012-11-02 03:15:00
11:35 PM,45.3,36.9,72,29.84,10.0,North,11.5,16.1,N/A,,Overcast,360,2012-11-02 03:35:00
11:55 PM,43.0,38.3,84,29.85,7.0,North,13.8,19.6,N/A,Rain,Rain,360,2012-11-02 03:55:00